Flag for Netherlands Weather past 2 weeks in Amsterdam, Netherlands

Now
59 °F

Fog.


Feels Like: 59 °F
Forecast: 59 / 74 °F
Wind: 5 mph from East

Location: Amsterdam Schiphol Airport

Current Time: Sep 18, 2014 at 8:10:09 AM

Latest Report: Sep 18, 2014 at 7:25 AM


Visibility: 4 mi

Pressure: 29.83 "Hg

Humidity: 100%

Dew point: 59 °F

Location of AmsterdamLocation

Historic Weather in Amsterdam — Graph

°F

Amsterdam temperature yesterday

Maximum temperature yesterday: 77 °F (at 3:25 PM)
Minimum temperature yesterday: 59 °F (at 4:25 AM)
Average temperature yesterday: 66 °F

Past Weeks' High & Low Weather Summary

 TemperatureHumidityPressure
High77 °F (Sep 17, 3:25 PM)100% (Sep 3, 6:25 AM)30.30 "Hg (Sep 3, 6:25 AM)
Low50 °F (Sep 8, 5:25 AM)49% (Sep 10, 2:25 PM)29.83 "Hg (Sep 18, 3:25 AM)
Average63 °F83%30.07 "Hg
* Reported Sep 3 6:25 AM — Sep 18 6:55 AM, Amsterdam, Weather by CustomWeather, © 2014

Note: Actual official high and low records may vary slightly from our data, if they occured in-between our weather recording intervals... More about our weather records

Advertising

Amsterdam weather history for previous 24 hours

 ConditionsComfort  
Time TempWeatherWind HumidityBarometerVisibility
6:55 AM
Sep 18
59 °FFog.5 mph100%29.83 "Hg5 mi
6:25 AM59 °FClear.7 mph94%29.83 "Hg6 mi
5:55 AM57 °FClear.5 mph100%29.83 "Hg6 mi
5:25 AM59 °FClear.5 mph100%29.83 "Hg6 mi
4:55 AM59 °FClear.5 mph94%29.83 "Hg10 mi
4:25 AM59 °FClear.6 mph100%29.83 "Hg10 mi
3:55 AM59 °FClear.5 mph100%29.83 "Hg10 mi
3:25 AM61 °FClear.6 mph94%29.83 "Hg10 mi
2:55 AM61 °FClear.6 mph94%29.86 "Hg10 mi
2:25 AM61 °FClear.7 mph94%29.86 "Hg10 mi
1:55 AM59 °FClear.6 mph94%29.86 "Hg10 mi
1:25 AM61 °FClear.6 mph94%29.86 "Hg10 mi
12:55 AM61 °FClear.7 mph94%29.86 "Hg10 mi
12:25 AM63 °FClear.7 mph88%29.86 "Hg10 mi
11:55 PM
Sep 17
63 °FClear.8 mph88%29.86 "Hg10 mi
11:25 PM63 °FClear.8 mph88%29.86 "Hg10 mi
10:55 PM63 °FClear.6 mph88%29.86 "Hg10 mi
10:25 PM64 °FPassing clouds.3 mph88%29.86 "HgN/A
9:55 PM66 °FClear.5 mph83%29.86 "Hg10 mi
9:25 PM64 °FClear.6 mph88%29.86 "Hg10 mi
8:55 PM64 °FClear.7 mph88%29.86 "Hg10 mi
8:25 PM64 °FPassing clouds.7 mph88%29.86 "HgN/A
7:55 PM68 °FScattered clouds.6 mph83%29.86 "HgN/A
7:25 PM70 °FScattered clouds.5 mph78%29.86 "HgN/A
6:55 PM72 °FSunny.6 mph73%29.86 "Hg10 mi
6:25 PM73 °FPassing clouds.6 mph69%29.86 "HgN/A
5:55 PM75 °FPassing clouds.6 mph61%29.86 "HgN/A
5:25 PM75 °FPassing clouds.8 mph61%29.86 "HgN/A
4:55 PM73 °FPassing clouds.7 mph65%29.86 "HgN/A
4:25 PM73 °FPassing clouds.7 mph69%29.86 "HgN/A
3:55 PM75 °FPassing clouds.8 mph61%29.86 "HgN/A
3:25 PM77 °FPassing clouds.10 mph57%29.86 "HgN/A
2:55 PM75 °FPassing clouds.9 mph61%29.89 "HgN/A
2:25 PM75 °FPassing clouds.8 mph61%29.89 "HgN/A
1:55 PM75 °FPassing clouds.9 mph61%29.89 "HgN/A
1:25 PM75 °FPassing clouds.9 mph61%29.89 "HgN/A
12:55 PM73 °FPassing clouds.9 mph65%29.89 "HgN/A
12:25 PM73 °FPassing clouds.10 mph69%29.89 "HgN/A
11:55 AM72 °FPassing clouds.9 mph69%29.92 "HgN/A
11:25 AM70 °FSunny.8 mph78%29.92 "Hg10 mi
10:55 AM68 °FPassing clouds.7 mph78%29.92 "HgN/A
10:25 AM68 °FPassing clouds.7 mph78%29.92 "HgN/A
9:55 AM66 °FPassing clouds.6 mph83%29.92 "HgN/A
9:25 AM64 °FClear.5 mph88%29.92 "Hg6 mi
8:55 AM63 °FClear.3 mph88%29.92 "Hg5 mi
8:25 AM61 °FClear.3 mph94%29.92 "Hg4 mi
Weather by CustomWeather, © 2014

See weather overviewHow to use our weather pages